TimeAST,TemperatureF,Dew PointF,Humidity,Sea Level PressureIn,VisibilityMPH,Wind Direction,Wind SpeedMPH,Gust SpeedMPH,PrecipitationIn,Events,Conditions,WindDirDegrees,DateUTC
12:00 AM,83,70,56,29.87,6,NNW,11.5,,,Thunderstorm,Thunderstorm,330,2012-11-18 21:00:00
12:00 AM,82.4,69.8,66,29.86,6.2,NNW,11.5,-,N/A,Thunderstorm,Thunderstorm,330,2012-11-18 21:00:00
1:00 AM,82.4,69.8,66,29.86,6.2,WNW,6.9,-,N/A,Thunderstorm,Thunderstorm,300,2012-11-18 22:00:00
2:00 AM,80.6,69.8,70,29.83,6.2,NNW,5.8,-,N/A,Thunderstorm,Thunderstorm,330,2012-11-18 23:00:00
3:00 AM,80.6,69.8,70,29.83,6.2,NNW,5.8,-,N/A,,Scattered Clouds,330,2012-11-19 00:00:00
4:00 AM,78.8,66.2,65,29.83,6.2,NNE,5.8,-,N/A,,Scattered Clouds,20,2012-11-19 01:00:00
5:00 AM,78.8,66.2,65,29.83,6.2,NNE,4.6,-,N/A,,Scattered Clouds,30,2012-11-19 02:00:00
6:00 AM,77.0,66.2,69,29.86,6.2,NNE,5.8,-,N/A,,Scattered Clouds,30,2012-11-19 03:00:00
7:00 AM,77.0,66.2,69,29.86,6.2,NNE,4.6,-,N/A,,Scattered Clouds,30,2012-11-19 04:00:00
8:00 AM,80.6,68.0,65,29.89,6.2,North,4.6,-,N/A,,Partly Cloudy,10,2012-11-19 05:00:00
9:00 AM,84.2,64.4,51,29.89,6.2,North,6.9,-,N/A,,Partly Cloudy,10,2012-11-19 06:00:00
10:00 AM,86.0,60.8,43,29.92,6.2,North,9.2,-,N/A,,Partly Cloudy,360,2012-11-19 07:00:00
11:00 AM,89.6,55.4,31,29.89,6.2,WNW,9.2,-,N/A,,Partly Cloudy,300,2012-11-19 08:00:00
12:00 PM,91.4,53.6,28,29.86,6.2,NNW,6.9,-,N/A,,Partly Cloudy,340,2012-11-19 09:00:00
1:00 PM,93.2,53.6,26,29.83,6.2,NNE,6.9,-,N/A,,Partly Cloudy,30,2012-11-19 10:00:00
2:00 PM,91.4,57.2,31,29.83,6.2,NW,11.5,-,N/A,,Partly Cloudy,320,2012-11-19 11:00:00
3:00 PM,91.4,59.0,34,29.83,-9999.0,WNW,18.4,-,N/A,,Clear,290,2012-11-19 12:00:00
4:00 PM,89.6,59.0,36,29.80,-9999.0,NW,13.8,-,N/A,,Clear,320,2012-11-19 13:00:00
5:00 PM,87.8,59.0,38,29.83,-9999.0,NW,13.8,-,N/A,,Clear,310,2012-11-19 14:00:00
6:00 PM,84.2,59.0,42,29.83,-9999.0,NW,13.8,-,N/A,,Clear,320,2012-11-19 15:00:00
7:00 PM,84.2,59.0,42,29.86,-9999.0,NW,9.2,-,N/A,,Clear,310,2012-11-19 16:00:00
8:00 PM,84.2,62.6,48,29.86,-9999.0,NNW,6.9,-,N/A,,Clear,330,2012-11-19 17:00:00
9:00 PM,82.4,57.2,42,29.89,6.2,North,4.6,-,N/A,,Partly Cloudy,360,2012-11-19 18:00:00
10:00 PM,80.6,57.2,45,29.89,6.2,NNE,4.6,-,N/A,,Partly Cloudy,30,2012-11-19 19:00:00
11:00 PM,80.6,53.6,39,29.89,6.2,ENE,9.2,-,N/A,,Scattered Clouds,60,2012-11-19 20:00:00